Year,Month,Day,Hour,Minute,Value (Times are PST for temperature in C)
2016,04,22,00,00,12.80
2016,04,22,00,01,12.80
2016,04,22,00,02,12.80
2016,04,22,00,03,12.70
2016,04,22,00,04,12.70
2016,04,22,00,05,12.70
2016,04,22,00,06,12.60
2016,04,22,00,07,12.60
2016,04,22,00,08,12.50
2016,04,22,00,09,12.50
2016,04,22,00,10,12.50
2016,04,22,00,11,12.40
2016,04,22,00,12,12.40
2016,04,22,00,13,12.40
2016,04,22,00,14,12.40
2016,04,22,00,15,12.30
2016,04,22,00,16,12.30
2016,04,22,00,17,12.30
2016,04,22,00,18,12.30
2016,04,22,00,19,12.20
2016,04,22,00,20,12.20
2016,04,22,00,21,12.20
2016,04,22,00,22,12.20
2016,04,22,00,23,12.20
2016,04,22,00,24,12.10
2016,04,22,00,25,12.10
2016,04,22,00,26,12.10
2016,04,22,00,27,12.10
2016,04,22,00,28,12.10
2016,04,22,00,29,12.10
2016,04,22,00,30,12.10
2016,04,22,00,31,12.10
2016,04,22,00,32,12.10
2016,04,22,00,33,12.00
2016,04,22,00,34,12.00
2016,04,22,00,35,12.00
2016,04,22,00,36,12.00
2016,04,22,00,37,11.90
2016,04,22,00,38,11.90
2016,04,22,00,39,11.90
2016,04,22,00,40,11.90
2016,04,22,00,41,11.90
2016,04,22,00,42,11.90
2016,04,22,00,43,11.80
2016,04,22,00,44,11.80
2016,04,22,00,45,11.80
2016,04,22,00,46,11.80
2016,04,22,00,47,11.80
2016,04,22,00,48,11.80
2016,04,22,00,49,11.80
2016,04,22,00,50,11.80
2016,04,22,00,51,11.80
2016,04,22,00,52,11.70
2016,04,22,00,53,11.70
2016,04,22,00,54,11.70
2016,04,22,00,55,11.70
2016,04,22,00,56,11.70
2016,04,22,00,57,11.70
2016,04,22,00,58,11.70
2016,04,22,00,59,11.70
2016,04,22,01,00,11.70
2016,04,22,01,01,11.70
2016,04,22,01,02,11.70
2016,04,22,01,03,11.70
2016,04,22,01,04,11.70
2016,04,22,01,05,11.70
2016,04,22,01,06,11.70
2016,04,22,01,07,11.70
2016,04,22,01,08,11.70
2016,04,22,01,09,11.70
2016,04,22,01,10,11.70
2016,04,22,01,11,11.70
2016,04,22,01,12,11.70
2016,04,22,01,13,11.70
2016,04,22,01,14,11.70
2016,04,22,01,15,11.70
2016,04,22,01,16,11.70
2016,04,22,01,17,11.70
2016,04,22,01,18,11.70
2016,04,22,01,19,11.70
2016,04,22,01,20,11.70
2016,04,22,01,21,11.70
2016,04,22,01,22,11.70
2016,04,22,01,23,11.70
2016,04,22,01,24,11.70
2016,04,22,01,25,11.70
2016,04,22,01,26,11.70
2016,04,22,01,27,11.70
2016,04,22,01,28,11.60
2016,04,22,01,29,11.60
2016,04,22,01,30,11.60
2016,04,22,01,31,11.60
2016,04,22,01,32,11.60
2016,04,22,01,33,11.50
2016,04,22,01,34,11.50
2016,04,22,01,35,11.40
2016,04,22,01,36,11.40
2016,04,22,01,37,11.40
2016,04,22,01,38,11.40
2016,04,22,01,39,11.40
2016,04,22,01,40,11.40
2016,04,22,01,41,11.40
2016,04,22,01,42,11.40
2016,04,22,01,43,11.40
2016,04,22,01,44,11.40
2016,04,22,01,45,11.30
2016,04,22,01,46,11.30
2016,04,22,01,47,11.30
2016,04,22,01,48,11.30
2016,04,22,01,49,11.30
2016,04,22,01,50,11.30
2016,04,22,01,51,11.30
2016,04,22,01,52,11.20
2016,04,22,01,53,11.20
2016,04,22,01,54,11.20
2016,04,22,01,55,11.20
2016,04,22,01,56,11.20
2016,04,22,01,57,11.20
2016,04,22,01,58,11.10
2016,04,22,01,59,11.10
2016,04,22,02,00,11.10
2016,04,22,02,01,11.10
2016,04,22,02,02,11.10
2016,04,22,02,03,11.10
2016,04,22,02,04,11.00
2016,04,22,02,05,11.00
2016,04,22,02,06,11.00
2016,04,22,02,07,11.00
2016,04,22,02,08,11.00
2016,04,22,02,09,11.00
2016,04,22,02,10,10.90
2016,04,22,02,11,10.90
2016,04,22,02,12,10.90
2016,04,22,02,13,10.90
2016,04,22,02,14,10.90
2016,04,22,02,15,10.90
2016,04,22,02,16,10.80
2016,04,22,02,17,10.80
2016,04,22,02,18,10.80
2016,04,22,02,19,10.80
2016,04,22,02,20,10.80
2016,04,22,02,21,10.70
2016,04,22,02,22,10.70
2016,04,22,02,23,10.70
2016,04,22,02,24,10.70
2016,04,22,02,25,10.70
2016,04,22,02,26,10.70
2016,04,22,02,27,10.70
2016,04,22,02,28,10.70
2016,04,22,02,29,10.70
2016,04,22,02,30,10.70
2016,04,22,02,31,10.70
2016,04,22,02,32,10.70
2016,04,22,02,33,10.70
2016,04,22,02,34,10.70
2016,04,22,02,35,10.70
2016,04,22,02,36,10.70
2016,04,22,02,37,10.70
2016,04,22,02,38,10.70
2016,04,22,02,39,10.70
2016,04,22,02,40,10.70
2016,04,22,02,41,10.70
2016,04,22,02,42,10.70
2016,04,22,02,43,10.70
2016,04,22,02,44,10.70
2016,04,22,02,45,10.70
2016,04,22,02,46,10.70
2016,04,22,02,47,10.70
2016,04,22,02,48,10.70
2016,04,22,02,49,10.70
2016,04,22,02,50,10.70
2016,04,22,02,51,10.70
2016,04,22,02,52,10.70
2016,04,22,02,53,10.70
2016,04,22,02,54,10.70
2016,04,22,02,55,10.70
2016,04,22,02,56,10.70
2016,04,22,02,57,10.70
2016,04,22,02,58,10.70
2016,04,22,02,59,10.70
2016,04,22,03,00,10.70
2016,04,22,03,01,10.70
2016,04,22,03,02,10.70
2016,04,22,03,03,10.70
2016,04,22,03,04,10.70
2016,04,22,03,05,10.70
2016,04,22,03,06,10.70
2016,04,22,03,07,10.70
2016,04,22,03,08,10.70
2016,04,22,03,09,10.70
2016,04,22,03,10,10.70
2016,04,22,03,11,10.70
2016,04,22,03,12,10.70
2016,04,22,03,13,10.70
2016,04,22,03,14,10.70
2016,04,22,03,15,10.70
2016,04,22,03,16,10.70
2016,04,22,03,17,10.70
2016,04,22,03,18,10.70
2016,04,22,03,19,10.70
2016,04,22,03,20,10.70
2016,04,22,03,21,10.60
2016,04,22,03,22,10.60
2016,04,22,03,23,10.60
2016,04,22,03,24,10.60
2016,04,22,03,25,10.60
2016,04,22,03,26,10.60
2016,04,22,03,27,10.60
2016,04,22,03,28,10.60
2016,04,22,03,29,10.60
2016,04,22,03,30,10.60
2016,04,22,03,31,10.60
2016,04,22,03,32,10.50
2016,04,22,03,33,10.50
2016,04,22,03,34,10.50
2016,04,22,03,35,10.50
2016,04,22,03,36,10.40
2016,04,22,03,37,10.40
2016,04,22,03,38,10.40
2016,04,22,03,39,10.40
2016,04,22,03,40,10.40
2016,04,22,03,41,10.40
2016,04,22,03,42,10.30
2016,04,22,03,43,10.30
2016,04,22,03,44,10.30
2016,04,22,03,45,10.30
2016,04,22,03,46,10.30
2016,04,22,03,47,10.30
2016,04,22,03,48,10.30
2016,04,22,03,49,10.30
2016,04,22,03,50,10.30
2016,04,22,03,51,10.30
2016,04,22,03,52,10.30
2016,04,22,03,53,10.30
2016,04,22,03,54,10.30
2016,04,22,03,55,10.30
2016,04,22,03,56,10.30
2016,04,22,03,57,10.30
2016,04,22,03,58,10.30
2016,04,22,03,59,10.30
2016,04,22,04,00,10.30
2016,04,22,04,01,10.30
2016,04,22,04,02,10.30
2016,04,22,04,03,10.30
2016,04,22,04,04,10.30
2016,04,22,04,05,10.30
2016,04,22,04,06,10.30
2016,04,22,04,07,10.30
2016,04,22,04,08,10.30
2016,04,22,04,09,10.30
2016,04,22,04,10,10.30
2016,04,22,04,11,10.30
2016,04,22,04,12,10.30
2016,04,22,04,13,10.30
2016,04,22,04,14,10.30
2016,04,22,04,15,10.30
2016,04,22,04,16,10.30
2016,04,22,04,17,10.30
2016,04,22,04,18,10.40
2016,04,22,04,19,10.40
2016,04,22,04,20,10.40
2016,04,22,04,21,10.40
2016,04,22,04,22,10.40
2016,04,22,04,23,10.40
2016,04,22,04,24,10.40
2016,04,22,04,25,10.40
2016,04,22,04,26,10.40
2016,04,22,04,27,10.40
2016,04,22,04,28,10.40
2016,04,22,04,29,10.40
2016,04,22,04,30,10.40
2016,04,22,04,31,10.40
2016,04,22,04,32,10.40
2016,04,22,04,33,10.40
2016,04,22,04,34,10.40
2016,04,22,04,35,10.40
2016,04,22,04,36,10.40
2016,04,22,04,37,10.50
2016,04,22,04,38,10.50
2016,04,22,04,39,10.60
2016,04,22,04,40,10.70
2016,04,22,04,41,10.80
2016,04,22,04,42,10.80
2016,04,22,04,43,10.90
2016,04,22,04,44,10.90
2016,04,22,04,45,11.00
2016,04,22,04,46,11.00
2016,04,22,04,47,11.10
2016,04,22,04,48,11.10
2016,04,22,04,49,11.10
2016,04,22,04,50,11.10
2016,04,22,04,51,11.10
2016,04,22,04,52,11.10
2016,04,22,04,53,11.10
2016,04,22,04,54,11.10
2016,04,22,04,55,11.10
2016,04,22,04,56,11.10
2016,04,22,04,57,11.10
2016,04,22,04,58,11.10
2016,04,22,04,59,11.00
2016,04,22,05,00,11.00
2016,04,22,05,01,11.00
2016,04,22,05,02,11.00
2016,04,22,05,03,11.00
2016,04,22,05,04,11.00
2016,04,22,05,05,11.00
2016,04,22,05,06,10.90
2016,04,22,05,07,10.90
2016,04,22,05,08,10.90
2016,04,22,05,09,10.90
2016,04,22,05,10,10.90
2016,04,22,05,11,10.90
2016,04,22,05,12,10.90
2016,04,22,05,13,10.90
2016,04,22,05,14,10.90
2016,04,22,05,15,10.90
2016,04,22,05,16,10.90
2016,04,22,05,17,10.90
2016,04,22,05,18,10.90
2016,04,22,05,19,10.90
2016,04,22,05,20,10.80
2016,04,22,05,21,10.80
2016,04,22,05,22,10.80
2016,04,22,05,23,10.80
2016,04,22,05,24,10.80
2016,04,22,05,25,10.80
2016,04,22,05,26,10.80
2016,04,22,05,27,10.80
2016,04,22,05,28,10.80
2016,04,22,05,29,10.90
2016,04,22,05,30,10.90
2016,04,22,05,31,10.90
2016,04,22,05,32,10.90
2016,04,22,05,33,10.90
2016,04,22,05,34,10.90
2016,04,22,05,35,10.90
2016,04,22,05,36,10.90
2016,04,22,05,37,10.90
2016,04,22,05,38,10.90
2016,04,22,05,39,10.90
2016,04,22,05,40,10.90
2016,04,22,05,41,10.90
2016,04,22,05,42,10.90
2016,04,22,05,43,10.90
2016,04,22,05,44,10.90
2016,04,22,05,45,10.90
2016,04,22,05,46,10.90
2016,04,22,05,47,10.90
2016,04,22,05,48,11.00
2016,04,22,05,49,11.00
2016,04,22,05,50,11.00
2016,04,22,05,51,11.10
2016,04,22,05,52,11.10
2016,04,22,05,53,11.10
2016,04,22,05,54,11.10
2016,04,22,05,55,11.10
2016,04,22,05,56,11.10
2016,04,22,05,57,11.10
2016,04,22,05,58,11.10
2016,04,22,05,59,11.20
2016,04,22,06,00,11.20
2016,04,22,06,01,11.20
2016,04,22,06,02,11.20
2016,04,22,06,03,11.20
2016,04,22,06,04,11.30
2016,04,22,06,05,11.30
2016,04,22,06,06,11.30
2016,04,22,06,07,11.40
2016,04,22,06,08,11.40
2016,04,22,06,09,11.40
2016,04,22,06,10,11.40
2016,04,22,06,11,11.50
2016,04,22,06,12,11.50
2016,04,22,06,13,11.50
2016,04,22,06,14,11.50
2016,04,22,06,15,11.50
2016,04,22,06,16,11.60
2016,04,22,06,17,11.60
2016,04,22,06,18,11.60
2016,04,22,06,19,11.60
2016,04,22,06,20,11.60
2016,04,22,06,21,11.70
2016,04,22,06,22,11.70
2016,04,22,06,23,11.70
2016,04,22,06,24,11.70
2016,04,22,06,25,11.70
2016,04,22,06,26,11.70
2016,04,22,06,27,11.80
2016,04,22,06,28,11.80
2016,04,22,06,29,11.80
2016,04,22,06,30,11.80
2016,04,22,06,31,11.80
2016,04,22,06,32,11.80
2016,04,22,06,33,11.80
2016,04,22,06,34,11.80
2016,04,22,06,35,11.80
2016,04,22,06,36,11.80
2016,04,22,06,37,11.90
2016,04,22,06,38,11.90
2016,04,22,06,39,11.90
2016,04,22,06,40,11.90
2016,04,22,06,41,11.90
2016,04,22,06,42,11.90
2016,04,22,06,43,11.90
2016,04,22,06,44,11.90
2016,04,22,06,45,11.90
2016,04,22,06,46,12.00
2016,04,22,06,47,12.00
2016,04,22,06,48,12.00
2016,04,22,06,49,12.00
2016,04,22,06,50,12.00
2016,04,22,06,51,12.00
2016,04,22,06,52,12.10
2016,04,22,06,53,12.10
2016,04,22,06,54,12.10
2016,04,22,06,55,12.10
2016,04,22,06,56,12.10
2016,04,22,06,57,12.10
2016,04,22,06,58,12.10
2016,04,22,06,59,12.20
2016,04,22,07,00,12.20
2016,04,22,07,01,12.20
2016,04,22,07,02,12.20
2016,04,22,07,03,12.30
2016,04,22,07,04,12.30
2016,04,22,07,05,12.30
2016,04,22,07,06,12.30
2016,04,22,07,07,12.30
2016,04,22,07,08,12.30
2016,04,22,07,09,12.30
2016,04,22,07,10,12.30
2016,04,22,07,11,12.40
2016,04,22,07,12,12.40
2016,04,22,07,13,12.40
2016,04,22,07,14,12.40
2016,04,22,07,15,12.40
2016,04,22,07,16,12.40
2016,04,22,07,17,12.40
2016,04,22,07,18,12.40
2016,04,22,07,19,12.40
2016,04,22,07,20,12.40
2016,04,22,07,21,12.40
2016,04,22,07,22,12.40
2016,04,22,07,23,12.50
2016,04,22,07,24,12.50
2016,04,22,07,25,12.50
2016,04,22,07,26,12.50
2016,04,22,07,27,12.50
2016,04,22,07,28,12.50
2016,04,22,07,29,12.50
2016,04,22,07,30,12.50
2016,04,22,07,31,12.50
2016,04,22,07,32,12.50
2016,04,22,07,33,12.50
2016,04,22,07,34,12.60
2016,04,22,07,35,12.60
2016,04,22,07,36,12.60
2016,04,22,07,37,12.60
2016,04,22,07,38,12.60
2016,04,22,07,39,12.60
2016,04,22,07,40,12.60
2016,04,22,07,41,12.60
2016,04,22,07,42,12.60
2016,04,22,07,43,12.60
2016,04,22,07,44,12.60
2016,04,22,07,45,12.60
2016,04,22,07,46,12.60
2016,04,22,07,47,12.60
2016,04,22,07,48,12.60
2016,04,22,07,49,12.60
2016,04,22,07,50,12.70
2016,04,22,07,51,12.70
2016,04,22,07,52,12.70
2016,04,22,07,53,12.70
2016,04,22,07,54,12.70
2016,04,22,07,55,12.70
2016,04,22,07,56,12.70
2016,04,22,07,57,12.70
2016,04,22,07,58,12.70
2016,04,22,07,59,12.70
2016,04,22,08,00,12.70
2016,04,22,08,01,12.70
2016,04,22,08,02,12.70
2016,04,22,08,03,12.70
2016,04,22,08,04,12.80
2016,04,22,08,05,12.80
2016,04,22,08,06,12.80
2016,04,22,08,07,12.80
2016,04,22,08,08,12.80
2016,04,22,08,09,12.80
2016,04,22,08,10,12.80
2016,04,22,08,11,12.80
2016,04,22,08,12,12.80
2016,04,22,08,13,12.80
2016,04,22,08,14,12.80
2016,04,22,08,15,12.70
2016,04,22,08,16,12.70
2016,04,22,08,17,12.70
2016,04,22,08,18,12.70
2016,04,22,08,19,12.70
2016,04,22,08,20,12.70
2016,04,22,08,21,12.70
2016,04,22,08,22,12.70
2016,04,22,08,23,12.70
2016,04,22,08,24,12.70
2016,04,22,08,25,12.70
2016,04,22,08,26,12.70
2016,04,22,08,27,12.70
2016,04,22,08,28,12.60
2016,04,22,08,29,12.60
2016,04,22,08,30,12.60
2016,04,22,08,31,12.60
2016,04,22,08,32,12.50
2016,04,22,08,33,12.50
2016,04,22,08,34,12.50
2016,04,22,08,35,12.50
2016,04,22,08,36,12.50
2016,04,22,08,37,12.50
2016,04,22,08,38,12.50
2016,04,22,08,39,12.40
2016,04,22,08,40,12.40
2016,04,22,08,41,12.40
2016,04,22,08,42,12.40
2016,04,22,08,43,12.40
2016,04,22,08,44,12.40
2016,04,22,08,45,12.40
2016,04,22,08,46,12.40
2016,04,22,08,47,12.40
2016,04,22,08,48,12.40
2016,04,22,08,49,12.40
2016,04,22,08,50,12.40
2016,04,22,08,51,12.40
2016,04,22,08,52,12.40
2016,04,22,08,53,12.40
2016,04,22,08,54,12.40
2016,04,22,08,55,12.40
2016,04,22,08,56,12.40
2016,04,22,08,57,12.40
2016,04,22,08,58,12.40
2016,04,22,08,59,12.40
2016,04,22,09,00,12.40
2016,04,22,09,01,12.40
2016,04,22,09,02,12.40
2016,04,22,09,03,12.40
2016,04,22,09,04,12.40
2016,04,22,09,05,12.30
2016,04,22,09,06,12.30
2016,04,22,09,07,12.30
2016,04,22,09,08,12.30
2016,04,22,09,09,12.30
2016,04,22,09,10,12.30
2016,04,22,09,11,12.20
2016,04,22,09,12,12.20
2016,04,22,09,13,12.20
2016,04,22,09,14,12.20
2016,04,22,09,15,12.20
2016,04,22,09,16,12.20
2016,04,22,09,17,12.10
2016,04,22,09,18,12.20
2016,04,22,09,19,12.10
2016,04,22,09,20,12.20
2016,04,22,09,21,12.10
2016,04,22,09,22,12.10
2016,04,22,09,23,12.10
2016,04,22,09,24,12.10
2016,04,22,09,25,12.10
2016,04,22,09,26,12.10
2016,04,22,09,27,12.20
2016,04,22,09,28,12.20
2016,04,22,09,29,12.20
2016,04,22,09,30,12.20
2016,04,22,09,31,12.20
2016,04,22,09,32,12.10
2016,04,22,09,33,12.20
2016,04,22,09,34,12.10
2016,04,22,09,35,12.10
2016,04,22,09,36,12.10
2016,04,22,09,37,12.10
2016,04,22,09,38,12.10
2016,04,22,09,39,12.20
2016,04,22,09,40,12.20
2016,04,22,09,41,12.20
2016,04,22,09,42,12.20
2016,04,22,09,43,12.20
2016,04,22,09,44,12.20
2016,04,22,09,45,12.20
2016,04,22,09,46,12.20
2016,04,22,09,47,12.20
2016,04,22,09,48,12.20
2016,04,22,09,49,12.20
2016,04,22,09,50,12.30
2016,04,22,09,51,12.30
2016,04,22,09,52,12.30
2016,04,22,09,53,12.30
2016,04,22,09,54,12.30
2016,04,22,09,55,12.30
2016,04,22,09,56,12.30
2016,04,22,09,57,12.30
2016,04,22,09,58,12.30
2016,04,22,09,59,12.30
2016,04,22,10,00,12.30
2016,04,22,10,01,12.30
2016,04,22,10,02,12.30
2016,04,22,10,03,12.30
2016,04,22,10,04,12.30
2016,04,22,10,05,12.30
2016,04,22,10,06,12.30
2016,04,22,10,07,12.40
2016,04,22,10,08,12.30
2016,04,22,10,09,12.40
2016,04,22,10,10,12.40
2016,04,22,10,11,12.40
2016,04,22,10,12,12.40
2016,04,22,10,13,12.40
2016,04,22,10,14,12.40
2016,04,22,10,15,12.40
2016,04,22,10,16,12.40
2016,04,22,10,17,12.50
2016,04,22,10,18,12.50
2016,04,22,10,19,12.50
2016,04,22,10,20,12.50
2016,04,22,10,21,12.50
2016,04,22,10,22,12.60
2016,04,22,10,23,12.50
2016,04,22,10,24,12.60
2016,04,22,10,25,12.60
2016,04,22,10,26,12.60
2016,04,22,10,27,12.60
2016,04,22,10,28,12.60
2016,04,22,10,29,12.60
2016,04,22,10,30,12.60
2016,04,22,10,31,12.70
2016,04,22,10,32,12.60
2016,04,22,10,33,12.70
2016,04,22,10,34,12.70
2016,04,22,10,35,12.70
2016,04,22,10,36,12.70
2016,04,22,10,37,12.70
2016,04,22,10,38,12.70
2016,04,22,10,39,12.70
2016,04,22,10,40,12.70
2016,04,22,10,41,12.70
2016,04,22,10,42,12.70
2016,04,22,10,43,12.70
2016,04,22,10,44,12.70
2016,04,22,10,45,12.70
2016,04,22,10,46,12.70
2016,04,22,10,47,12.70
2016,04,22,10,48,12.70
2016,04,22,10,49,12.70
2016,04,22,10,50,12.70
2016,04,22,10,51,12.70
2016,04,22,10,52,12.80
2016,04,22,10,53,12.70
2016,04,22,10,54,12.80
2016,04,22,10,55,12.80
2016,04,22,10,56,12.80
2016,04,22,10,57,12.80
2016,04,22,10,58,12.80
2016,04,22,10,59,12.80
2016,04,22,11,00,12.80
2016,04,22,11,01,12.80
2016,04,22,11,02,12.80
2016,04,22,11,03,12.80
2016,04,22,11,04,12.80
2016,04,22,11,05,12.80
2016,04,22,11,06,12.80
2016,04,22,11,07,12.80
2016,04,22,11,08,12.80
2016,04,22,11,09,12.90
2016,04,22,11,10,12.90
2016,04,22,11,11,12.90
2016,04,22,11,12,12.90
2016,04,22,11,13,12.90
2016,04,22,11,14,12.90
2016,04,22,11,15,12.90
2016,04,22,11,16,12.90
2016,04,22,11,17,13.00
2016,04,22,11,18,13.00
2016,04,22,11,19,13.00
2016,04,22,11,20,13.00
2016,04,22,11,21,13.10
2016,04,22,11,22,13.10
2016,04,22,11,23,13.10
2016,04,22,11,24,13.10
2016,04,22,11,25,13.10
2016,04,22,11,26,13.10
2016,04,22,11,27,13.20
2016,04,22,11,28,13.10
2016,04,22,11,29,13.10
2016,04,22,11,30,13.10
2016,04,22,11,31,13.10
2016,04,22,11,32,13.10
2016,04,22,11,33,13.20
2016,04,22,11,34,13.20
2016,04,22,11,35,13.20
2016,04,22,11,36,13.20
2016,04,22,11,37,13.20
2016,04,22,11,38,13.20
2016,04,22,11,39,13.20
2016,04,22,11,40,13.20
2016,04,22,11,41,13.20
2016,04,22,11,42,13.20
2016,04,22,11,43,13.20
2016,04,22,11,44,13.30
2016,04,22,11,45,13.30
2016,04,22,11,46,13.30
2016,04,22,11,47,13.30
2016,04,22,11,48,13.30
2016,04,22,11,49,13.30
2016,04,22,11,50,13.30
2016,04,22,11,51,13.30
2016,04,22,11,52,13.30
2016,04,22,11,53,13.30
2016,04,22,11,54,13.30
2016,04,22,11,55,13.20
2016,04,22,11,56,13.20
2016,04,22,11,57,13.20
2016,04,22,11,58,13.20
2016,04,22,11,59,13.20
2016,04,22,12,00,13.20
2016,04,22,12,01,13.20
2016,04,22,12,02,13.20
2016,04,22,12,03,13.20
2016,04,22,12,04,13.30
2016,04,22,12,05,13.30
2016,04,22,12,06,13.30
2016,04,22,12,07,13.30
2016,04,22,12,08,13.30
2016,04,22,12,09,13.30
2016,04,22,12,10,13.30
2016,04,22,12,11,13.40
2016,04,22,12,12,13.40
2016,04,22,12,13,13.40
2016,04,22,12,14,13.30
2016,04,22,12,15,13.30
2016,04,22,12,16,13.20
2016,04,22,12,17,13.20
2016,04,22,12,18,13.20
2016,04,22,12,19,13.20
2016,04,22,12,20,13.10
2016,04,22,12,21,13.10
2016,04,22,12,22,13.10
2016,04,22,12,23,13.10
2016,04,22,12,24,13.00
2016,04,22,12,25,13.00
2016,04,22,12,26,13.00
2016,04,22,12,27,13.00
2016,04,22,12,28,13.00
2016,04,22,12,29,13.00
2016,04,22,12,30,13.00
2016,04,22,12,31,13.00
2016,04,22,12,32,12.90
2016,04,22,12,33,12.90
2016,04,22,12,34,12.90
2016,04,22,12,35,12.90
2016,04,22,12,36,12.80
2016,04,22,12,37,12.80
2016,04,22,12,38,12.80
2016,04,22,12,39,12.80
2016,04,22,12,40,12.80
2016,04,22,12,41,12.80
2016,04,22,12,42,12.80
2016,04,22,12,43,12.80
2016,04,22,12,44,12.80
2016,04,22,12,45,12.80
2016,04,22,12,46,12.80
2016,04,22,12,47,12.80
2016,04,22,12,48,12.80
2016,04,22,12,49,12.80
2016,04,22,12,50,12.80
2016,04,22,12,51,12.80
2016,04,22,12,52,12.80
2016,04,22,12,53,12.80
2016,04,22,12,54,12.80
2016,04,22,12,55,12.80
2016,04,22,12,56,12.80
2016,04,22,12,57,12.80
2016,04,22,12,58,12.80
2016,04,22,12,59,12.90
2016,04,22,13,00,12.80
2016,04,22,13,01,12.80
2016,04,22,13,02,12.80
2016,04,22,13,03,12.90
2016,04,22,13,04,12.90
2016,04,22,13,05,12.90
2016,04,22,13,06,12.90
2016,04,22,13,07,12.90
2016,04,22,13,08,12.90
2016,04,22,13,09,12.90
2016,04,22,13,10,12.90
2016,04,22,13,11,12.90
2016,04,22,13,12,12.80
2016,04,22,13,13,12.80
2016,04,22,13,14,12.80
2016,04,22,13,15,12.70
2016,04,22,13,16,12.70
2016,04,22,13,17,12.70
2016,04,22,13,18,12.70
2016,04,22,13,19,12.70
2016,04,22,13,20,12.70
2016,04,22,13,21,12.70
2016,04,22,13,22,12.70
2016,04,22,13,23,12.70
2016,04,22,13,24,12.70
2016,04,22,13,25,12.70
2016,04,22,13,26,12.70
2016,04,22,13,27,12.60
2016,04,22,13,28,12.60
2016,04,22,13,29,12.60
2016,04,22,13,30,12.60
2016,04,22,13,31,12.60
2016,04,22,13,32,12.60
2016,04,22,13,33,12.50
2016,04,22,13,34,12.50
2016,04,22,13,35,12.50
2016,04,22,13,36,12.50
2016,04,22,13,37,12.50
2016,04,22,13,38,12.50
2016,04,22,13,39,12.50
2016,04,22,13,40,12.50
2016,04,22,13,41,12.50
2016,04,22,13,42,12.50
2016,04,22,13,43,12.40
2016,04,22,13,44,12.50
2016,04,22,13,45,12.50
2016,04,22,13,46,12.50
2016,04,22,13,47,12.50
2016,04,22,13,48,12.50
2016,04,22,13,49,12.50
2016,04,22,13,50,12.60
2016,04,22,13,51,12.60
2016,04,22,13,52,12.60
2016,04,22,13,53,12.60
2016,04,22,13,54,12.70
2016,04,22,13,55,12.60
2016,04,22,13,56,12.60
2016,04,22,13,57,12.60
2016,04,22,13,58,12.60
2016,04,22,13,59,12.60
2016,04,22,14,00,12.60
2016,04,22,14,01,12.60
2016,04,22,14,02,12.60
2016,04,22,14,03,12.60
2016,04,22,14,04,12.70
2016,04,22,14,05,12.70
2016,04,22,14,06,12.70
2016,04,22,14,07,12.70
2016,04,22,14,08,12.70
2016,04,22,14,09,12.70
2016,04,22,14,10,12.70
2016,04,22,14,11,12.60
2016,04,22,14,12,12.70
2016,04,22,14,13,12.70
2016,04,22,14,14,12.70
2016,04,22,14,15,12.70
2016,04,22,14,16,12.70
2016,04,22,14,17,12.70
2016,04,22,14,18,12.70
2016,04,22,14,19,12.60
2016,04,22,14,20,12.60
2016,04,22,14,21,12.60
2016,04,22,14,22,12.60
2016,04,22,14,23,12.60
2016,04,22,14,24,12.60
2016,04,22,14,25,12.60
2016,04,22,14,26,12.60
2016,04,22,14,27,12.60
2016,04,22,14,28,12.60
2016,04,22,14,29,12.60
2016,04,22,14,30,12.50
2016,04,22,14,31,12.50
2016,04,22,14,32,12.40
2016,04,22,14,33,12.40
2016,04,22,14,34,12.40
2016,04,22,14,35,12.40
2016,04,22,14,36,12.40
2016,04,22,14,37,12.40
2016,04,22,14,38,12.30
2016,04,22,14,39,12.30
2016,04,22,14,40,12.30
2016,04,22,14,41,12.30
2016,04,22,14,42,12.30
2016,04,22,14,43,12.30
2016,04,22,14,44,12.30
2016,04,22,14,45,12.30
2016,04,22,14,46,12.30
2016,04,22,14,47,12.30
2016,04,22,14,48,12.30
2016,04,22,14,49,12.30
2016,04,22,14,50,12.30
2016,04,22,14,51,12.30
2016,04,22,14,52,12.30
2016,04,22,14,53,12.30
2016,04,22,14,54,12.30
2016,04,22,14,55,12.30
2016,04,22,14,56,12.30
2016,04,22,14,57,12.30
2016,04,22,14,58,12.30
2016,04,22,14,59,12.30
2016,04,22,15,00,12.30
2016,04,22,15,01,12.30
2016,04,22,15,02,12.30
2016,04,22,15,03,12.30
2016,04,22,15,04,12.30
2016,04,22,15,05,12.30
2016,04,22,15,06,12.30
2016,04,22,15,07,12.30
2016,04,22,15,08,12.30
2016,04,22,15,09,12.30
2016,04,22,15,10,12.30
2016,04,22,15,11,12.30
2016,04,22,15,12,12.30
2016,04,22,15,13,12.30
2016,04,22,15,14,12.30
2016,04,22,15,15,12.30
2016,04,22,15,16,12.30
2016,04,22,15,17,12.30
2016,04,22,15,18,12.30
2016,04,22,15,19,12.30
2016,04,22,15,20,12.30
2016,04,22,15,21,12.20
2016,04,22,15,22,12.20
2016,04,22,15,23,12.20
2016,04,22,15,24,12.20
2016,04,22,15,25,12.30
2016,04,22,15,26,12.20
2016,04,22,15,27,12.20
2016,04,22,15,28,12.20
2016,04,22,15,29,12.30
2016,04,22,15,30,12.30
2016,04,22,15,31,12.30
2016,04,22,15,32,12.30
2016,04,22,15,33,12.30
2016,04,22,15,34,12.30
2016,04,22,15,35,12.30
2016,04,22,15,36,12.30
2016,04,22,15,37,12.30
2016,04,22,15,38,12.30
2016,04,22,15,39,12.30
2016,04,22,15,40,12.30
2016,04,22,15,41,12.30
2016,04,22,15,42,12.30
2016,04,22,15,43,12.30
2016,04,22,15,44,12.30
2016,04,22,15,45,12.30
2016,04,22,15,46,12.30
2016,04,22,15,47,12.30
2016,04,22,15,48,12.30
2016,04,22,15,49,12.30
2016,04,22,15,50,12.30
2016,04,22,15,51,12.30
2016,04,22,15,52,12.30
2016,04,22,15,53,12.30
2016,04,22,15,54,12.30
2016,04,22,15,55,12.30
2016,04,22,15,56,12.30
2016,04,22,15,57,12.20
2016,04,22,15,58,12.20
2016,04,22,15,59,12.20
2016,04,22,16,00,12.20
2016,04,22,16,01,12.20
2016,04,22,16,02,12.20
2016,04,22,16,03,12.20
2016,04,22,16,04,12.20
2016,04,22,16,05,12.10
2016,04,22,16,06,12.10
2016,04,22,16,07,12.10
2016,04,22,16,08,12.10
2016,04,22,16,09,12.10
2016,04,22,16,10,12.10
2016,04,22,16,11,12.10
2016,04,22,16,12,12.10
2016,04,22,16,13,12.10
2016,04,22,16,14,12.10
2016,04,22,16,15,12.10
2016,04,22,16,16,12.10
2016,04,22,16,17,12.10
2016,04,22,16,18,12.10
2016,04,22,16,19,12.10
2016,04,22,16,20,12.10
2016,04,22,16,21,12.10
2016,04,22,16,22,12.10
2016,04,22,16,23,12.10
2016,04,22,16,24,12.10
2016,04,22,16,25,12.10
2016,04,22,16,26,12.10
2016,04,22,16,27,12.10
2016,04,22,16,28,12.10
2016,04,22,16,29,12.10
2016,04,22,16,30,12.10
2016,04,22,16,31,12.10
2016,04,22,16,32,12.10
2016,04,22,16,33,12.20
2016,04,22,16,34,12.20
2016,04,22,16,35,12.20
2016,04,22,16,36,12.20
2016,04,22,16,37,12.20
2016,04,22,16,38,12.30
2016,04,22,16,39,12.30
2016,04,22,16,40,12.30
2016,04,22,16,41,12.30
2016,04,22,16,42,12.30
2016,04,22,16,43,12.30
2016,04,22,16,44,12.20
2016,04,22,16,45,12.20
2016,04,22,16,46,12.20
2016,04,22,16,47,12.20
2016,04,22,16,48,12.20
2016,04,22,16,49,12.30
2016,04,22,16,50,12.30
2016,04,22,16,51,12.30
2016,04,22,16,52,12.30
2016,04,22,16,53,12.40
2016,04,22,16,54,12.40
2016,04,22,16,55,12.30
2016,04,22,16,56,12.30
2016,04,22,16,57,12.30
2016,04,22,16,58,12.30
2016,04,22,16,59,12.30
2016,04,22,17,00,12.30
2016,04,22,17,01,12.30
2016,04,22,17,02,12.30
2016,04,22,17,03,12.30
2016,04,22,17,04,12.30
2016,04,22,17,05,12.30
2016,04,22,17,06,12.30
2016,04,22,17,07,12.30
2016,04,22,17,08,12.30
2016,04,22,17,09,12.30
2016,04,22,17,10,12.30
2016,04,22,17,11,12.30
2016,04,22,17,12,12.40
2016,04,22,17,13,12.40
2016,04,22,17,14,12.50
2016,04,22,17,15,12.50
2016,04,22,17,16,12.50
2016,04,22,17,17,12.50
2016,04,22,17,18,12.50
2016,04,22,17,19,12.50